STARLINK-1851 (46783 NORAD) Tracking and Keplerian Element Data
This shows tracking and keplerian element data for the satellite.
Feedback or suggestion? Click here.
Element | Value |
Catalog | 46783 |
Name | STARLINK-1851 |
Epoch Orbit | 177 |
Epoch Day | 14.91667824 |
Epoch Year | 2021 |
RAAN | 117.4927 |
Inclination | 53.0541 |
Eccentricity | 0.0002574 |
Argument of Perigee | 323.1293 |
Mean Anonmoly | 210.7882 |
Mean Motion | 15.62828738 |
Decay Rate | -0.00047975 |
L1 | 1 46783U 20074AW 21014.91667824 -.00047975 00000-0 -51957-3 0 9996 |
L2 | 2 46783 53.0541 117.4927 0002574 323.1293 210.7882 15.62828738 1773 |
Live tracking and technical data element details for STARLINK-1851 (NORAD 46783). STARLINK-1851 can be tracked NOW for your location showing map with azimuth and elevation plus other details from your city location.
Track the satellite on the map from your city or location and see movement details for azimuth, elevation, latitude, longitude, range, height, and movement on the map or in text.
IsCatalogInMostPopularTable: catalog: 46783, numindb: 29
Update: records affected: 1
GetName: 46783 STARLINK-1851
Hit Count: updated at: Sat, 16 Jan 2021 00:21:49 GMT